Weather History for Sidney, NE

Change the Weather History Date:

Sunday, April 14, 2013

  Actual Average Record
Temperature  
Mean Temperature 39 °F 47 °F  
Max Temperature 49 °F 61 °F 83 °F (2002)
Min Temperature 29 °F 32 °F 14 °F (1983)
Degree Days  
Heating Degree Days 26 18  
Month to date heating degree days 359 285  
Since 1 July heating degree days 5966 5670  
Cooling Degree Days 0 0  
Month to date cooling degree days 0 0  
Year to date cooling degree days 0 0  
Moisture  
Dew Point 24 °F    
Average Humidity 53    
Maximum Humidity 82    
Minimum Humidity 23    
Precipitation  
Precipitation 0.03 in 0.07 in 0.68 in (1977)
Month to date precipitation 0.92 0.80  
Year to date precipitation 1.87 2.42  
Sea Level Pressure  
Sea Level Pressure 29.58 in    
Wind  
Wind Speed 22 mph (NW)    
Max Wind Speed 43 mph    
Max Gust Speed 51 mph    
Visibility 10 miles    
Events Rain    
T = Trace of Precipitation, MM = Missing Value Source: NWS Daily Summary

Daily Weather History Graph

Daily Weather History Graph

Search for Another Location

Airport:

Trip Planner

Search our weather history database for the weather conditions in past years. The results will help you decide how hot, cold, wet, or windy it might be!

Date:

Astronomy

Apr. 14, 2013 Rise Set
Actual Time 6:13 AM MDT 7:31 PM MDT
Civil Twilight 5:45 AM MDT 7:59 PM MDT
Nautical Twilight 5:11 AM MDT 8:34 PM MDT
Astronomical Twilight 4:35 AM MDT 9:10 PM MDT
Moon 8:50 AM MDT (4/14) 11:47 PM MDT (4/14)
Length of Visible Light 14h 14m
Length of Day
13h 17m
Waxing Crescent, 17% of the Moon is Illuminated
Apr 14
Waxing Crescent
Apr 18
First Quarter
Apr 25
Full
May 2
Last Quarter
May 9
New

Hourly Weather History & Observations

Time (MDT) Temp. Windchill Dew Point Humidity Pressure Visibility Wind Dir Wind Speed Gust Speed Precip Events Conditions
12:53 AM 43.0 °F 33.5 °F 37.9 °F 82% 29.47 in 5.0 mi NW 24.2 mph 32.2 mph 0.06 in Rain Rain
1:04 AM 44.6 °F 36.4 °F 37.4 °F 76% 29.51 in 5.0 mi WNW 20.7 mph 32.2 mph 0.02 in Rain Light Rain
1:35 AM 44.6 °F 40.2 °F 35.6 °F 71% 29.48 in 10.0 mi WNW 8.1 mph 31.1 mph 0.04 in Rain Light Rain
1:53 AM 46.0 °F 40.2 °F 34.0 °F 63% 29.40 in 10.0 mi WNW 12.7 mph 21.9 mph 0.04 in   Overcast
2:53 AM 43.0 °F 36.8 °F 33.1 °F 68% 29.39 in 10.0 mi West 11.5 mph - N/A   Overcast
3:53 AM 42.1 °F 35.2 °F 33.1 °F 70% 29.39 in 10.0 mi NW 12.7 mph - N/A   Overcast
4:53 AM 39.9 °F 31.8 °F 28.9 °F 65% 29.41 in 10.0 mi NW 15.0 mph - N/A   Clear
5:53 AM 37.0 °F 26.4 °F 28.0 °F 70% 29.44 in 10.0 mi WNW 20.7 mph - N/A   Clear
6:53 AM 36.0 °F 24.2 °F 23.0 °F 59% 29.47 in 10.0 mi WNW 24.2 mph 32.2 mph N/A   Clear
7:53 AM 37.9 °F 25.7 °F 19.0 °F 47% 29.51 in 10.0 mi WNW 29.9 mph 42.6 mph N/A   Clear
8:53 AM 37.0 °F 24.5 °F 27.0 °F 67% 29.54 in 10.0 mi NW 29.9 mph 43.7 mph N/A   Clear
9:53 AM 39.9 °F 28.0 °F 26.1 °F 58% 29.56 in 10.0 mi NW 32.2 mph 44.9 mph N/A   Clear
10:53 AM 39.9 °F 27.6 °F 24.1 °F 53% 29.60 in 10.0 mi NW 34.5 mph 47.2 mph N/A   Partly Cloudy
11:53 AM 42.1 °F 31.3 °F 25.0 °F 51% 29.61 in 10.0 mi WNW 29.9 mph 39.1 mph N/A   Mostly Cloudy
12:53 PM 43.0 °F 32.5 °F 21.0 °F 42% 29.62 in 10.0 mi NW 29.9 mph 43.7 mph N/A   Clear
2:53 PM 46.9 °F - 15.1 °F 28% 29.60 in 10.0 mi NW 28.8 mph 46.0 mph N/A   Scattered Clouds
3:53 PM 44.1 °F 33.0 °F 10.0 °F 25% 29.62 in 10.0 mi WNW 36.8 mph 46.0 mph N/A   Partly Cloudy
4:53 PM 46.9 °F - 10.9 °F 23% 29.63 in 10.0 mi WNW 39.1 mph 49.5 mph N/A   Partly Cloudy
5:53 PM 45.0 °F 34.4 °F 10.0 °F 24% 29.66 in 10.0 mi WNW 35.7 mph 47.2 mph N/A   Clear
6:53 PM 43.0 °F 33.5 °F 12.9 °F 30% 29.69 in 10.0 mi WNW 24.2 mph 33.4 mph N/A   Mostly Cloudy
7:53 PM 36.0 °F 28.5 °F 18.0 °F 48% 29.72 in 10.0 mi NW 10.4 mph - N/A   Clear
8:53 PM 30.9 °F 25.2 °F 18.0 °F 59% 29.77 in 10.0 mi WNW 5.8 mph - N/A   Clear
9:53 PM 30.0 °F 21.7 °F 19.9 °F 66% 29.79 in 10.0 mi NNW 9.2 mph - N/A   Clear
10:53 PM 32.0 °F 21.6 °F 23.0 °F 69% 29.78 in 10.0 mi North 15.0 mph - N/A   Clear
11:53 PM 30.0 °F 20.5 °F 23.0 °F 75% 29.79 in 10.0 mi North 11.5 mph - N/A   Clear